Temp
2 2 2 3 3 3 2 2 1 3 2 3 3 3 3 2 2 2 2 2 1 0 -0 -1 -2 -2 -3 -3 -4 -4 -5 -5 -5 -6 -7 -7 -8 -9 -10 -10 -11 -11 -11 -11
1 2 2 3 3 3 2 2 1 1 2 2 2 2 2 2 2 2 2 2 1 -0 -1 -2 -2 -2 -3 -3 -4 -4 -5 -5 -5 -6 -7 -7 -8 -9 -9 -10 -10 -11 -10 -11
0 2 2 2 3 3 3 3 3 3 4 2 2 2 3 3 3 2 2 1 1 -0 -1 -2 -2 -2 -3 -3 -4 -4 -5 -5 -6 -6 -7 -7 -8 -8 -9 -10 -10 -10 -10 -11
2 2 -2 3 3 3 4 3 3 3 3 2 2 2 2 2 2 2 2 1 0 -0 -1 -2 -2 -2 -3 -3 -4 -4 -5 -5 -6 -6 -7 -7 -8 -8 -9 -10 -10 -10 -11 -11
1 1 3 4 4 4 3 4 3 3 3 2 1 2 2 1 2 2 2 1 0 -1 -1 -1 -1 -2 -3 -3 -4 -4 -5 -5 -6 -6 -7 -7 -8 -8 -9 -9 -10 -10 -10 -11
1 2 -0 3 4 3 3 3 4 4 3 2 2 3 3 3 3 3 2 1 -0 -1 -1 -1 -1 -2 -3 -3 -4 -4 -5 -5 -6 -6 -7 -7 -8 -8 -8 -9 -9 -10 -10 -10
1 1 2 3 3 3 3 4 3 4 3 2 3 3 3 4 3 2 1 0 0 -0 -0 -1 -1 -2 -2 -3 -3 -4 -5 -5 -6 -6 -6 -7 -8 -8 -8 -8 -9 -9 -10 -10
1 1 2 3 3 3 4 4 3 3 3 3 2 2 3 3 3 2 1 1 0 -0 -0 -1 -1 -2 -2 -3 -4 -4 -4 -5 -5 -6 -7 -7 -7 -8 -8 -8 -9 -9 -9 -10
1 2 3 4 3 3 3 3 4 3 3 3 2 2 3 3 2 2 1 1 0 0 0 -1 -1 -2 -2 -3 -4 -4 -4 -5 -5 -6 -6 -7 -7 -8 -8 -8 -9 -9 -9 -9
1 2 3 3 3 3 3 3 4 4 3 2 2 2 3 3 2 2 2 1 1 1 0 -1 -1 -2 -2 -3 -3 -4 -4 -5 -5 -5 -6 -6 -7 -7 -8 -8 -8 -9 -9 -9
1 2 3 3 3 3 3 4 4 4 3 2 3 3 3 3 2 2 2 1 1 1 0 -1 -1 -2 -2 -3 -3 -4 -4 -4 -5 -5 -6 -6 -7 -7 -8 -8 -8 -9 -9 -9
2 2 2 3 3 3 3 3 4 4 3 2 2 3 3 3 2 2 2 2 1 1 0 -0 -1 -2 -2 -2 -3 -3 -4 -4 -5 -5 -5 -6 -7 -7 -7 -8 -8 -8 -9 -9
2 1 2 2 3 3 3 3 3 3 3 3 3 3 3 2 2 2 2 2 1 1 0 -0 -1 -1 -2 -2 -3 -3 -4 -4 -5 -5 -5 -6 -6 -6 -7 -7 -8 -8 -9 -9
1 2 2 2 2 3 3 2 3 3 3 3 3 3 3 2 2 2 2 1 1 1 0 -0 -1 -1 -2 -2 -3 -3 -3 -4 -4 -5 -5 -5 -6 -6 -7 -7 -7 -8 -8 -8
0 1 1 2 2 2 2 2 2 3 3 3 3 3 3 3 2 2 2 2 1 1 0 -0 -1 -1 -2 -2 -2 -3 -3 -3 -3 -4 -5 -5 -6 -6 -6 -6 -7 -7 -8 -8
0 0 1 1 2 2 2 2 2 2 2 2 2 2 2 2 2 2 2 1 1 0 0 -0 -0 -1 -2 -2 -2 -2 -3 -3 -4 -4 -4 -5 -5 -6 -6 -6 -7 -7 -7 -7
0 0 0 1 1 2 2 2 2 2 2 2 2 2 2 2 2 2 2 1 1 1 0 0 -0 -1 -1 -2 -2 -2 -3 -3 -3 -4 -4 -4 -5 -5 -6 -6 -6 -7 -7 -7
0 1 1 1 1 1 1 1 2 2 2 2 2 2 2 2 2 1 1 1 1 1 0 -0 -0 -1 -1 -1 -2 -2 -3 -3 -3 -4 -4 -4 -5 -5 -5 -6 -6 -7 -7 -7
0 1 1 1 1 2 2 2 2 2 2 2 2 2 1 1 1 1 1 1 1 1 0 -0 -0 -1 -1 -2 -2 -2 -3 -3 -3 -3 -4 -4 -5 -5 -5 -6 -6 -6 -6 -7
1 1 1 1 1 1 1 1 2 2 2 2 2 1 1 1 1 1 1 1 1 -0 -0 -0 -0 -1 -1 -2 -2 -2 -3 -3 -3 -3 -4 -4 -4 -4 -5 -5 -6 -6 -6 -6
1 1 1 0 1 1 1 1 2 2 2 3 2 2 2 1 1 1 1 1 1 1 1 0 -0 -1 -1 -2 -2 -2 -2 -3 -3 -3 -3 -4 -4 -4 -5 -5 -5 -6 -6 -6
0 2 2 2 2 1 1 1 2 2 2 2 2 2 2 2 2 2 1 1 0 0 1 0 -0 -1 -1 -2 -2 -3 -3 -3 -3 -3 -3 -4 -4 -4 -4 -5 -5 -5 -6 -6
1 2 2 2 2 2 1 2 2 2 2 2 2 2 2 2 2 2 2 1 1 1 1 0 -0 -1 -2 -2 -2 -3 -3 -3 -3 -3 -4 -4 -4 -4 -4 -5 -5 -5 -5 -6
1 2 2 2 2 2 3 3 3 2 2 2 2 2 2 2 2 2 1 1 0 0 -0 -0 -0 -1 -1 -2 -2 -3 -3 -3 -3 -3 -4 -4 -4 -4 -4 -5 -5 -5 -5 -6
0 1 1 2 2 3 3 3 3 3 3 2 2 2 2 2 2 1 1 1 1 1 0 0 0 -0 -0 -1 -1 -2 -2 -3 -3 -3 -4 -4 -4 -4 -5 -5 -5 -5 -5 -6
0 1 1 1 2 2 2 3 3 3 3 3 3 3 2 2 2 1 1 1 1 1 0 -0 0 0 -0 -0 -1 -1 -2 -2 -2 -3 -3 -4 -4 -4 -4 -5 -5 -5 -6 -6
0 1 1 2 2 3 3 3 3 3 3 3 3 3 2 2 2 2 1 1 1 1 1 0 0 0 -0 -0 -1 -1 -1 -2 -2 -3 -3 -3 -4 -4 -4 -5 -5 -5 -5 -6
Height
3093 3095 3095 3094 3093 3094 3094 3096 3096 3093 3096 3099 3100 3102 3103 3106 3108 3109 3111 3113 3115 3115 3113 3111 3109 3106 3104 3101 3099 3095 3092 3088 3081 3074 3067 3060 3053 3046 3039 3033 3027 3022 3016 3011
3090 3094 3092 3091 3090 3089 3090 3090 3091 3091 3091 3095 3097 3099 3101 3103 3106 3108 3110 3112 3113 3113 3112 3110 3108 3106 3105 3102 3099 3096 3094 3089 3083 3076 3070 3064 3057 3050 3043 3037 3031 3026 3021 3016
3090 3090 3090 3089 3084 3082 3083 3084 3086 3086 3090 3092 3093 3095 3099 3101 3104 3107 3109 3111 3112 3111 3110 3109 3108 3107 3105 3102 3100 3097 3095 3091 3084 3078 3073 3067 3061 3055 3049 3042 3036 3031 3026 3021
3088 3088 3089 3080 3080 3079 3078 3079 3081 3082 3086 3089 3090 3093 3095 3099 3103 3105 3108 3110 3110 3110 3109 3109 3109 3107 3106 3104 3101 3099 3096 3092 3086 3081 3076 3071 3066 3061 3054 3047 3041 3035 3030 3025
3085 3085 3080 3077 3077 3077 3076 3076 3075 3077 3083 3086 3087 3089 3092 3095 3100 3104 3107 3108 3109 3109 3109 3109 3108 3108 3106 3105 3102 3100 3098 3094 3089 3084 3079 3075 3071 3065 3059 3053 3047 3041 3035 3030
3084 3084 3080 3075 3076 3075 3075 3073 3072 3074 3078 3082 3085 3086 3091 3093 3098 3102 3104 3107 3108 3108 3108 3108 3109 3108 3107 3105 3104 3102 3099 3095 3091 3087 3083 3079 3075 3070 3065 3059 3053 3047 3042 3037
3081 3081 3076 3074 3075 3075 3076 3077 3071 3073 3077 3080 3083 3089 3091 3094 3097 3101 3104 3106 3107 3107 3108 3109 3109 3109 3108 3106 3105 3102 3100 3097 3094 3090 3087 3083 3078 3074 3069 3065 3059 3054 3048 3044
3079 3079 3077 3072 3073 3075 3075 3072 3072 3073 3076 3079 3083 3087 3090 3093 3097 3100 3104 3106 3105 3106 3108 3109 3110 3110 3108 3107 3105 3103 3101 3099 3096 3093 3090 3086 3082 3078 3074 3070 3066 3061 3056 3051
3075 3073 3072 3072 3072 3071 3071 3071 3072 3072 3074 3078 3083 3087 3091 3094 3097 3101 3104 3104 3105 3107 3108 3110 3110 3110 3109 3107 3105 3104 3102 3100 3098 3095 3093 3090 3086 3083 3078 3074 3071 3067 3063 3058
3071 3071 3071 3071 3071 3070 3070 3070 3071 3072 3075 3079 3083 3087 3091 3094 3097 3101 3103 3105 3106 3107 3109 3110 3110 3109 3109 3108 3106 3105 3103 3102 3100 3099 3096 3093 3090 3086 3082 3079 3075 3072 3069 3064
3067 3068 3069 3070 3071 3071 3071 3071 3072 3073 3076 3081 3084 3087 3091 3094 3098 3101 3103 3105 3106 3108 3109 3109 3109 3109 3109 3108 3107 3106 3104 3103 3102 3100 3099 3096 3093 3090 3087 3084 3080 3077 3074 3071
3066 3068 3070 3070 3071 3071 3072 3071 3073 3076 3077 3082 3085 3088 3091 3095 3099 3101 3104 3105 3107 3108 3109 3109 3109 3109 3109 3108 3107 3106 3105 3104 3103 3102 3101 3099 3097 3094 3092 3088 3085 3082 3079 3077
3063 3066 3069 3070 3070 3071 3072 3072 3074 3076 3079 3082 3085 3088 3092 3095 3098 3101 3104 3105 3106 3108 3108 3108 3109 3109 3109 3108 3107 3107 3107 3106 3105 3104 3102 3101 3099 3096 3094 3092 3089 3086 3083 3081
3063 3067 3070 3071 3072 3072 3073 3074 3075 3076 3079 3082 3085 3089 3092 3095 3097 3101 3103 3105 3106 3107 3108 3108 3108 3109 3109 3108 3108 3108 3107 3107 3105 3104 3103 3101 3100 3099 3097 3095 3092 3090 3087 3085
3065 3068 3069 3071 3072 3073 3074 3075 3076 3077 3079 3081 3084 3088 3091 3094 3097 3099 3101 3103 3105 3106 3107 3107 3107 3109 3109 3108 3108 3108 3108 3107 3107 3105 3103 3102 3101 3100 3098 3096 3094 3093 3091 3089
3063 3067 3069 3070 3071 3072 3074 3076 3077 3078 3079 3081 3084 3086 3090 3092 3094 3097 3099 3102 3104 3105 3106 3107 3107 3108 3108 3108 3108 3107 3107 3107 3106 3105 3105 3104 3102 3101 3099 3098 3096 3095 3093 3092
3060 3063 3066 3067 3069 3071 3072 3075 3077 3078 3079 3080 3082 3084 3087 3089 3091 3095 3097 3100 3102 3104 3105 3106 3107 3107 3107 3107 3107 3107 3107 3107 3106 3106 3105 3104 3103 3102 3100 3099 3098 3097 3095 3093
3056 3059 3062 3064 3067 3069 3070 3072 3074 3076 3077 3079 3080 3082 3084 3086 3090 3093 3095 3097 3099 3102 3103 3104 3105 3105 3106 3106 3106 3106 3107 3107 3106 3106 3105 3104 3103 3102 3101 3100 3098 3097 3096 3094
3051 3054 3058 3060 3063 3065 3067 3069 3071 3073 3074 3075 3077 3079 3082 3084 3086 3089 3092 3094 3096 3099 3101 3102 3103 3104 3104 3104 3104 3105 3105 3105 3105 3105 3104 3104 3103 3102 3101 3100 3098 3097 3095 3094
3045 3049 3051 3054 3056 3058 3061 3064 3066 3068 3071 3072 3074 3076 3078 3080 3083 3085 3088 3091 3094 3096 3097 3099 3101 3101 3102 3102 3103 3103 3104 3104 3104 3104 3104 3103 3103 3102 3100 3099 3098 3096 3095 3093
3038 3040 3042 3046 3050 3052 3055 3058 3061 3064 3066 3068 3071 3073 3076 3078 3079 3082 3084 3087 3090 3092 3095 3096 3098 3099 3099 3100 3100 3101 3101 3102 3102 3102 3102 3102 3101 3100 3099 3098 3097 3096 3094 3092
3032 3033 3036 3040 3044 3047 3051 3053 3056 3059 3061 3064 3067 3069 3071 3073 3075 3078 3081 3085 3087 3088 3091 3093 3095 3096 3097 3097 3098 3098 3099 3100 3100 3100 3100 3099 3099 3098 3097 3096 3095 3094 3093 3091
3030 3031 3033 3036 3039 3042 3045 3047 3051 3055 3057 3060 3064 3066 3068 3071 3073 3074 3077 3081 3082 3084 3086 3088 3091 3092 3093 3093 3094 3095 3095 3096 3097 3097 3097 3097 3096 3096 3095 3093 3092 3091 3090 3088
3026 3027 3028 3030 3031 3034 3037 3041 3045 3049 3053 3056 3059 3062 3064 3066 3069 3071 3073 3075 3077 3080 3082 3084 3086 3087 3088 3089 3090 3091 3092 3092 3093 3093 3093 3093 3093 3092 3091 3090 3089 3087 3085 3084
3022 3023 3023 3025 3026 3028 3031 3035 3038 3042 3045 3049 3052 3055 3059 3062 3064 3068 3069 3071 3073 3074 3076 3078 3080 3081 3082 3083 3084 3085 3086 3088 3088 3088 3089 3089 3088 3088 3087 3086 3085 3083 3081 3080
3018 3018 3018 3019 3020 3024 3026 3029 3031 3034 3038 3041 3045 3048 3051 3055 3058 3061 3063 3065 3067 3068 3070 3072 3074 3076 3077 3079 3079 3080 3081 3082 3083 3083 3083 3083 3082 3082 3082 3080 3079 3078 3076 3075
3013 3012 3013 3013 3014 3016 3019 3022 3024 3028 3030 3033 3037 3040 3044 3047 3050 3053 3055 3058 3060 3062 3064 3066 3068 3070 3071 3072 3073 3074 3075 3076 3077 3077 3077 3077 3077 3076 3075 3073 3072 3070 3069 3068
Wind_Speed
14 16 16 16 12 21 35 35 20 20 18 25 10 14 17 13 10 11 10 7 6 4 5 7 8 11 13 14 16 19 21 23 24 26 29 32 34 32 28 26 26 27 28 29
17 21 12 14 14 20 17 22 27 26 20 10 19 17 21 17 10 6 7 6 3 2 5 6 7 11 13 13 16 18 20 22 23 25 27 30 33 32 30 27 26 26 26 28
22 22 16 13 24 27 27 24 17 20 5 8 16 20 18 19 15 9 7 2 1 2 6 5 9 12 11 13 15 17 18 20 22 24 25 28 31 33 33 31 29 27 26 27
7 8 2 22 10 9 12 14 19 17 8 8 9 16 15 21 16 9 3 4 3 3 3 6 9 10 10 12 14 15 17 19 21 22 23 25 29 32 33 32 30 29 27 27
6 15 13 12 12 11 11 13 12 13 11 10 9 15 18 16 12 6 6 5 3 1 5 7 8 10 10 11 12 13 15 17 20 21 22 23 26 29 32 33 31 31 30 28
14 5 5 1 1 7 10 15 14 11 16 14 13 17 13 12 14 9 7 4 1 2 4 6 8 8 8 9 10 12 13 16 18 20 21 22 24 26 30 32 33 32 32 31
16 10 9 13 10 10 4 4 8 3 13 14 8 6 5 13 13 10 5 3 1 1 4 7 6 6 6 7 9 10 12 15 17 19 20 21 23 24 26 30 32 32 32 31
16 9 9 5 5 7 6 6 7 8 13 12 6 8 9 13 12 8 5 4 4 2 4 5 5 5 5 6 8 10 13 14 16 18 20 20 21 23 25 27 29 31 32 32
16 16 11 5 7 10 9 8 6 9 10 14 10 10 13 15 13 10 8 6 4 2 2 3 2 4 4 6 8 10 12 13 15 16 19 20 21 22 23 24 26 28 30 32
15 11 13 13 5 6 1 4 3 7 11 14 9 10 14 16 14 11 8 6 4 1 0 1 2 3 5 6 7 9 10 12 13 15 17 19 20 20 21 22 24 26 27 29
21 16 12 11 4 3 2 3 3 5 8 10 8 11 14 15 14 11 8 7 4 2 1 1 2 4 5 6 7 9 10 11 11 13 16 17 18 19 20 20 21 22 24 26
18 12 10 6 5 4 3 2 3 4 9 10 9 12 14 15 13 11 8 7 4 2 2 2 3 4 5 6 7 8 9 10 11 12 14 15 16 18 18 19 19 20 20 21
11 6 9 2 3 5 4 2 3 4 6 5 9 13 13 14 14 12 10 7 5 2 2 2 3 3 5 6 6 7 8 9 10 11 12 13 14 15 16 18 18 19 19 20
9 7 9 4 2 3 4 4 2 2 3 6 10 12 14 14 15 13 10 8 5 3 1 1 1 2 5 5 5 6 7 9 10 10 10 11 12 13 14 16 17 18 19 19
6 8 7 5 2 2 3 4 4 3 3 4 7 11 13 14 13 12 11 8 6 4 2 1 1 2 4 4 4 4 5 7 9 9 10 10 10 11 12 13 15 16 17 17
12 11 11 12 6 3 0 0 4 4 2 2 5 9 13 14 14 14 12 9 6 5 4 3 2 2 3 2 3 3 4 6 7 8 8 9 10 10 11 12 13 14 14 15
18 15 15 16 12 11 10 6 4 6 7 4 4 8 14 16 15 14 11 11 9 7 6 5 3 3 3 2 2 2 3 4 6 7 8 9 9 9 10 10 11 11 12 13
25 20 15 17 18 16 11 11 11 9 9 7 7 9 14 17 14 11 10 11 11 8 7 7 6 5 5 4 2 1 1 2 3 5 6 7 7 8 8 9 10 10 10 10
27 22 24 25 23 23 21 19 17 14 11 11 9 8 10 13 15 15 14 14 12 10 9 9 7 7 7 6 4 2 0 1 2 3 5 5 6 7 7 8 9 9 9 10
26 28 27 27 29 29 27 23 19 17 15 14 11 12 13 15 18 18 15 13 10 11 14 12 10 10 9 8 6 4 2 2 3 3 4 6 6 7 7 8 8 9 9 9
19 27 32 31 26 24 23 22 19 17 16 15 12 12 12 15 17 18 17 15 15 16 12 12 12 11 10 8 8 6 5 4 3 4 5 5 6 7 8 8 9 9 9 10
10 16 20 20 21 21 22 17 17 17 17 16 14 15 17 18 17 16 15 14 16 16 14 14 13 12 12 11 9 8 7 6 6 6 6 6 7 7 9 10 11 11 11 11
13 17 20 23 26 26 27 24 21 21 18 18 16 16 15 13 13 12 11 15 18 17 16 15 15 15 15 14 11 10 9 9 8 8 9 8 8 9 9 9 10 12 13 13
14 20 23 22 24 27 28 28 27 25 24 21 20 20 18 16 15 13 13 17 18 18 17 17 18 18 16 15 14 13 12 11 12 11 10 11 11 11 11 11 12 12 13 14
11 15 20 24 25 25 27 27 28 28 28 28 28 27 25 25 23 18 15 16 18 21 21 21 21 21 19 17 16 16 16 15 15 15 13 12 13 13 13 13 14 15 15 16
13 15 17 20 23 24 22 22 23 23 23 25 26 28 28 27 26 26 23 21 23 24 23 22 22 21 19 16 16 17 18 19 19 18 16 15 15 15 16 16 16 17 18 18
16 16 14 15 17 20 22 23 23 22 23 23 23 26 27 28 28 28 28 26 25 25 26 25 23 22 20 18 19 20 20 20 20 19 19 18 17 17 18 19 19 20 21 21
Wind_Direction
241 270 262 251 250 244 240 244 243 274 255 239 258 226 214 211 221 241 252 280 293 299 313 315 336 342 353 357 2 6 7 5 8 13 17 18 21 21 21 19 21 23 24 28
239 254 253 251 268 263 268 249 249 252 260 239 223 210 209 210 222 266 265 285 286 297 297 305 338 348 355 357 5 9 9 8 12 17 18 21 24 24 24 24 23 24 25 29
229 243 239 257 261 264 264 265 270 255 310 245 235 228 216 224 237 280 279 265 170 248 269 328 351 355 349 1 7 12 11 12 17 19 19 22 25 27 28 28 28 27 26 29
229 240 279 249 260 284 296 272 266 266 262 237 248 230 232 230 243 253 240 145 177 235 312 1 354 342 353 4 10 14 14 17 21 22 21 22 25 28 32 32 31 33 31 32
218 215 272 260 279 260 280 291 275 257 235 216 238 187 207 212 215 186 144 158 196 340 16 2 336 349 356 7 13 15 18 22 25 26 24 23 26 29 33 35 34 36 36 35
206 213 242 281 270 313 292 273 259 263 189 198 197 197 185 175 170 152 136 147 129 40 4 337 346 352 1 10 16 19 22 27 28 29 28 27 27 29 32 34 36 38 39 38
210 223 267 253 256 281 246 300 269 194 173 204 217 186 173 170 147 144 149 130 157 68 346 343 342 357 8 18 22 24 28 31 30 31 32 31 30 29 32 35 37 39 44 43
211 222 261 254 250 238 284 281 251 230 197 197 212 198 174 147 138 145 136 154 164 80 347 331 347 360 26 32 30 30 34 35 34 34 34 34 33 30 32 34 37 38 42 47
213 231 247 301 298 283 278 249 248 222 194 193 214 204 171 149 139 146 163 178 135 79 326 333 345 23 41 47 42 39 36 37 36 37 37 36 35 33 33 34 35 37 39 42
225 237 258 287 284 338 171 230 222 211 196 191 208 190 164 160 154 159 159 138 122 111 351 40 16 47 55 58 51 47 41 43 37 40 39 40 38 37 35 35 34 37 38 39
235 240 275 285 232 265 272 269 125 169 173 188 174 173 172 162 152 162 165 153 142 139 100 121 71 62 65 68 60 52 45 43 42 41 43 41 39 39 38 37 36 37 38 40
266 275 271 265 247 226 175 231 154 174 161 178 170 172 173 167 162 172 171 164 151 112 104 116 91 80 77 71 65 56 50 42 44 44 45 43 41 41 39 39 38 38 40 43
246 223 220 172 153 158 159 174 147 170 166 171 173 175 173 177 176 179 183 174 153 142 99 104 98 101 84 72 64 58 51 46 45 45 45 45 43 43 41 42 41 40 39 39
152 187 208 211 224 175 178 160 175 182 189 185 187 182 182 185 186 183 185 181 166 169 125 103 119 115 86 73 66 63 51 49 46 48 44 46 44 42 40 42 41 42 41 39
170 221 247 272 272 203 185 172 181 207 236 236 206 190 188 195 188 184 196 188 183 182 174 173 208 138 102 86 73 64 57 52 49 47 44 43 42 41 38 39 40 41 42 42
209 237 242 258 249 252 252 175 185 199 235 234 219 198 194 194 190 192 200 193 182 187 196 223 237 176 148 124 92 62 56 51 47 43 44 45 43 36 32 36 35 35 36 38
214 214 226 240 254 272 281 278 253 235 240 238 226 207 203 204 202 200 200 195 202 205 206 225 234 214 196 163 110 76 51 44 43 37 32 34 36 32 28 30 30 32 30 30
218 219 221 220 232 240 252 271 272 259 253 243 228 216 208 208 205 203 207 205 213 216 214 224 231 222 209 196 180 149 70 37 33 28 28 28 29 30 23 20 26 24 26 22
219 231 244 249 254 252 260 273 266 258 250 251 244 227 214 205 204 206 208 209 212 216 220 228 229 228 217 211 206 199 212 332 357 9 9 13 13 15 13 14 16 19 18 13
222 230 242 246 248 254 262 265 248 247 246 242 234 220 215 206 208 212 213 211 204 198 218 226 225 222 220 215 216 219 233 267 305 334 347 350 353 355 356 1 3 6 9 2
233 236 232 229 241 245 246 243 238 238 234 231 226 213 215 218 217 218 219 217 220 229 232 228 224 223 221 218 221 230 243 258 285 308 325 334 333 334 336 342 345 351 349 347
227 220 222 222 221 229 229 225 223 219 212 214 215 202 208 217 221 221 219 215 223 229 230 231 231 231 229 227 223 230 247 263 276 288 297 307 316 321 325 329 331 333 332 333
228 228 217 219 224 224 225 230 224 222 213 211 216 215 214 224 232 232 229 227 229 231 232 232 231 231 231 234 232 235 244 260 273 282 291 298 302 306 310 312 316 321 322 322
242 240 235 231 229 228 228 231 233 231 231 228 221 222 220 219 232 232 222 217 215 222 231 232 236 240 240 239 238 241 245 255 267 274 280 288 293 296 300 305 307 309 310 312
272 263 256 245 239 233 229 230 237 239 236 235 234 233 233 234 239 242 237 234 233 229 226 230 236 242 246 249 252 250 251 251 259 267 272 277 283 288 294 298 302 304 304 305
283 270 271 267 249 238 237 234 235 236 237 233 230 232 234 237 241 242 243 240 233 227 226 229 238 247 252 253 253 254 255 254 255 261 267 272 276 283 287 291 296 298 300 302
287 287 275 269 255 240 235 234 239 240 238 231 226 226 229 235 239 241 241 239 240 240 231 227 234 244 249 250 249 249 252 255 256 260 263 268 273 277 281 285 289 292 297 300